TimeCST,TemperatureF,Dew PointF,Humidity,Sea Level PressureIn,VisibilityMPH,Wind Direction,Wind SpeedMPH,Gust SpeedMPH,PrecipitationIn,Events,Conditions,WindDirDegrees,DateUTC
12:52 AM,32.0,30.0,92,29.77,4.0,NW,8.1,-,N/A,,Overcast,320,2012-12-17 06:52:00
1:52 AM,30.9,30.0,96,29.78,2.5,NNW,6.9,-,N/A,,Overcast,330,2012-12-17 07:52:00
2:06 AM,30.2,30.2,100,29.76,2.0,NW,6.9,-,N/A,,Overcast,320,2012-12-17 08:06:00
2:52 AM,30.9,30.0,96,29.77,2.0,NNW,6.9,-,N/A,,Overcast,340,2012-12-17 08:52:00
3:18 AM,30.2,30.2,100,29.73,1.8,NNW,9.2,-,N/A,,Overcast,330,2012-12-17 09:18:00
3:44 AM,30.2,30.2,100,29.74,2.0,NNW,3.5,-,N/A,,Overcast,340,2012-12-17 09:44:00
3:52 AM,30.9,30.0,96,29.76,1.8,North,5.8,-,N/A,,Overcast,360,2012-12-17 09:52:00
4:27 AM,30.2,28.4,93,29.74,0.8,NNW,5.8,-,N/A,,Mist,340,2012-12-17 10:27:00
4:52 AM,30.0,28.9,96,29.77,0.5,NNE,3.5,-,N/A,Fog,Light Freezing Fog,20,2012-12-17 10:52:00
5:07 AM,30.2,30.2,100,29.75,0.2,North,3.5,-,N/A,Fog,Light Freezing Fog,350,2012-12-17 11:07:00
5:20 AM,30.2,30.2,100,29.75,0.5,North,3.5,-,N/A,Fog,Light Freezing Fog,350,2012-12-17 11:20:00
5:52 AM,30.0,28.9,96,29.77,0.8,North,4.6,-,N/A,,Mist,360,2012-12-17 11:52:00
6:13 AM,30.2,28.4,93,29.74,1.8,North,4.6,-,N/A,,Overcast,350,2012-12-17 12:13:00
6:19 AM,30.2,28.4,93,29.74,3.0,North,5.8,-,N/A,,Overcast,10,2012-12-17 12:19:00
6:32 AM,30.2,28.4,93,29.74,1.8,North,4.6,-,N/A,,Overcast,360,2012-12-17 12:32:00
6:52 AM,30.0,28.9,96,29.76,1.2,North,6.9,-,N/A,,Overcast,350,2012-12-17 12:52:00
7:00 AM,30.2,28.4,93,29.74,3.0,North,5.8,-,N/A,,Overcast,360,2012-12-17 13:00:00
7:27 AM,30.2,28.4,93,29.74,1.8,North,4.6,-,N/A,,Overcast,360,2012-12-17 13:27:00
7:40 AM,30.2,28.4,93,29.73,0.8,North,4.6,-,N/A,,Overcast,350,2012-12-17 13:40:00
7:52 AM,30.0,28.9,96,29.75,0.5,NNW,3.5,-,N/A,Fog,Light Freezing Fog,340,2012-12-17 13:52:00
8:07 AM,30.2,28.4,93,29.74,1.2,Calm,Calm,-,N/A,,Overcast,0,2012-12-17 14:07:00
8:52 AM,30.0,28.0,92,29.77,1.2,NW,4.6,-,N/A,,Overcast,310,2012-12-17 14:52:00
9:22 AM,30.2,28.4,93,29.75,2.0,WNW,3.5,-,N/A,,Overcast,300,2012-12-17 15:22:00
9:33 AM,30.2,28.4,93,29.76,1.5,WNW,3.5,-,N/A,,Overcast,290,2012-12-17 15:33:00
9:52 AM,30.0,28.9,96,29.78,1.2,NW,3.5,-,N/A,,Overcast,310,2012-12-17 15:52:00
10:27 AM,30.2,28.4,93,29.74,2.5,Calm,Calm,-,N/A,,Overcast,0,2012-12-17 16:27:00
10:50 AM,30.2,28.4,93,29.73,3.0,NNW,3.5,-,N/A,,Overcast,330,2012-12-17 16:50:00
10:52 AM,30.9,28.9,92,29.75,2.5,Calm,Calm,-,N/A,,Overcast,0,2012-12-17 16:52:00
11:52 AM,30.9,28.9,92,29.75,2.5,WNW,3.5,-,N/A,,Overcast,290,2012-12-17 17:52:00
11:59 AM,30.2,28.4,93,29.72,3.0,WNW,4.6,-,N/A,,Overcast,290,2012-12-17 17:59:00
12:11 PM,30.2,28.4,93,29.72,3.0,West,5.8,-,N/A,,Overcast,280,2012-12-17 18:11:00
12:52 PM,32.0,28.9,88,29.73,3.0,Calm,Calm,-,N/A,,Overcast,0,2012-12-17 18:52:00
1:52 PM,32.0,28.0,85,29.73,4.0,West,3.5,-,N/A,,Overcast,280,2012-12-17 19:52:00
2:52 PM,32.0,28.9,88,29.71,5.0,WNW,3.5,-,N/A,,Overcast,300,2012-12-17 20:52:00
3:52 PM,32.0,28.0,85,29.71,5.0,North,5.8,-,N/A,,Overcast,360,2012-12-17 21:52:00
6:52 PM,30.9,26.1,82,29.75,7.0,Calm,Calm,-,N/A,,Overcast,0,2012-12-18 00:52:00
7:52 PM,30.9,27.0,85,29.75,7.0,Calm,Calm,-,N/A,,Overcast,0,2012-12-18 01:52:00
8:52 PM,30.9,26.1,82,29.75,6.0,WSW,4.6,-,N/A,,Haze,240,2012-12-18 02:52:00
9:52 PM,30.9,27.0,85,29.75,4.0,SW,4.6,-,N/A,,Overcast,230,2012-12-18 03:52:00
10:52 PM,30.9,27.0,85,29.76,4.0,Calm,Calm,-,N/A,,Overcast,0,2012-12-18 04:52:00
11:52 PM,30.0,27.0,88,29.78,4.0,SW,3.5,-,N/A,,Overcast,220,2012-12-18 05:52:00